Location: Banksville Park
(38.5557°N, 75.1182°W)
Time: 04:20:05
(UTC+00:00)

Envisat - Pass Details

Date: 25 November 2020
Orbit: 764 x 766 km, 98.1° (Epoch: 16 January)

Event Time Altitude Azimuth Distance (km) Brightness Sun altitude
Rises 23:37:42 0° 220° (SW) 3,219 7.0 -22.4°
Reaches altitude 10° 23:42:07 10° 257° (WSW) 2,301 6.6 -23.2°
Maximum altitude 23:43:20 11° 271° (W) 2,248 6.5 -23.5°
Drops below altitude 10° 23:44:34 10° 285° (WNW) 2,305 6.4 -23.7°
Sets 23:49:01 0° 322° (NW) 3,239 6.6 -24.6°
